Regional Weather Roundup
Issued by NWS

Home | Current Version | Previous Version | Graphics & Text | Print | Product List | Glossary On
Versions: 1 2 3 4 5 6 7 8 9 10 11 12 13 14 15 16 17 18 19 20 21 22 23 24 25 26 27 28 29 30 31 32 33 34 35 36 37 38 39 40 41 42 43 44 45 46 47 48 49 50
630
ASUS45 KTFX 141610
RWRMT
MONTANA REGIONAL WEATHER ROUNDUP
NATIONAL WEATHER SERVICE GREAT FALLS MT
900 AM MST SUN FEB 14 2016

NOTE: "FAIR" INDICATES FEW OR NO CLOUDS BELOW 12000 FEET WITH NO
SIGNIFICANT WEATHER AND/OR OBSTRUCTIONS TO VISIBILITY.

MTZ001>007-043-141700-
WEST OF THE DIVIDE

CITY           SKY/WX    TMP DP  RH WIND       PRES   REMARKS
KALISPELL      CLOUDY    36  31  82 S8        29.97R WCI  30
MISSOULA       CLOUDY    36  29  75 NW3       30.02R
BUTTE          FLURRIES  32  26  78 NE8       29.97R WCI  25
MULLAN PASS    SNOW      28  27  96 NW8       30.00R VSB 1/4 WCI  20
ANACONDA         N/A     39  25  56 W18       29.97R WCI  30
DEER LODGE       N/A     34  28  80 CALM      29.97S
HAMILTON         N/A     43  30  61 S8        30.02R
$$

MTZ008-052>055-141700-
SOUTHWEST MONTANA

CITY           SKY/WX    TMP DP  RH WIND       PRES   REMARKS
BOZEMAN        CLOUDY    38  26  62 W12       29.94R WCI  30
DILLON         CLOUDY    36  26  67 S8        30.01R WCI  30
ENNIS          CLOUDY    39  23  52 CALM      30.06R
$$

MTZ009-010-012-014-046-048-049-054-141700-
EAST SLOPES AND CENTRAL MONTANA

CITY           SKY/WX    TMP DP  RH WIND       PRES   REMARKS
CUT BANK       MOSUNNY   36  24  62 W22       29.77R WCI  25
GREAT FALLS    SUNNY     40  24  53 SW13      29.81R
MALMSTROM AFB  SUNNY     40  25  54 W16G25    29.81R
HELENA         MOSUNNY   40  28  62 W13G24    29.91R
CHOTEAU          N/A     39  25  56 W21       29.81S WCI  29
$$

MTZ011-013-016-021-045-047-050-051-141700-
NORTH CENTRAL MONTANA

CITY           SKY/WX    TMP DP  RH WIND       PRES   REMARKS
HAVRE          CLOUDY    38  26  62 W14       29.74R WCI  30
LEWISTOWN      CLOUDY    38  23  55 W13G22    29.78R WCI  30
N BAR RANCH    PTSUNNY   39  25  56 NW13G24   29.77S WCI  32
CHINOOK          N/A     39  25  56 W14G21    29.73R WCI  31
$$

MTZ017>020-022>027-061-062-141700-
NORTHEAST MONTANA

CITY           SKY/WX    TMP DP  RH WIND       PRES   REMARKS
GLASGOW        CLOUDY    34  27  75 SW5       29.71F
JORDAN           N/A     36  30  79 W8        29.74S WCI  30
SIDNEY         CLOUDY    34  27  75 W7        29.73F WCI  28
WOLF POINT     CLOUDY    33  28  81 SW10      29.74S WCI  25
PLENTYWOOD       N/A     25  19  80 SE5       29.70F
POPLAR           N/A     28  27  93 S5        29.74F
$$

MTZ028>42-056>058-141700-
SOUTHCENTRAL AND SOUTHEAST MONTANA

CITY           SKY/WX    TMP DP  RH WIND       PRES   REMARKS
BAKER          CLOUDY    35  27  72 W15       29.77S WCI  25
BILLINGS       CLOUDY    37  26  64 SW13      29.81S WCI  29
LIVINGSTON     CLOUDY    41  25  53 W26G38    29.87S
MILES CITY     CLOUDY    35  32  88 SW12      29.79F WCI  27
FORSYTH          N/A     37  34  87 SW8       29.79F WCI  31
$$

REGIONAL REPORTS...DAKOTAS

CITY           SKY/WX    TMP DP  RH WIND       PRES   REMARKS
WILLISTON      CLOUDY    25  20  81 W6        29.72F WCI  18
MINOT          CLOUDY    30  23  75 W12       29.69S WCI  20
DICKINSON      MOSUNNY   32  26  78 W14       29.70S WCI  22
BEACH            N/A     34  28  80 W15       29.77R WCI  24
CROSBY         CLOUDY    32  32 100 W7        29.72S WCI  26
TIOGA          CLOUDY    28  28 100 NW9       29.74S WCI  20
BISMARCK       CLOUDY    33  27  78 W5        29.74S
GRAND FORKS    LGT SNOW  15  10  80 S21       29.80F VSB 1   WCI  -2
FARGO          LGT SNOW  15  10  80 S20G28    29.84F WCI  -2
BUFFALO SD       N/A     37  27  67 W14       29.70F WCI  28
RAPID CITY     CLOUDY    36  27  69 W3        29.81S
$$

REGIONAL REPORTS...WYOMING/IDAHO/WASHINGTON

CITY           SKY/WX    TMP DP  RH WIND       PRES   REMARKS
GILLETTE       CLOUDY    33  26  75 S5        29.82S
SHERIDAN       PTSUNNY   36  21  55 CALM      29.83S
BUFFALO WY     CLOUDY    37  21  52 N6        29.83S
CODY           SUNNY     41  21  45 W12G20    29.87S
YELLOWSTONE LA   N/A     24  19  81 W5        30.00R
IDAHO FALLS    FOG       33  32  96 SW18      30.13S VSB 3/4 WCI  22
SALMON         CLOUDY    28  25  86 CALM      30.09R
BOISE          LGT RAIN  40  38  93 S3        30.24S
SPOKANE        CLOUDY    39  37  92 SW6       30.09R
$$

REGIONAL REPORTS...ALBERTA

CITY           SKY/WX    TMP DP  RH WIND       PRES   REMARKS
EDMONTON       CLOUDY    34  23  64 W8        29.69R WCI  27
CALGARY        MOCLDY    37  16  41 W13G20    29.72R WCI  29
LETHBRIDGE     MOSUNNY   39  23  52 W24G30    29.75R WCI  28
MEDICINE HAT   PTSUNNY   37  27  65 W12G18    29.69R WCI  30
WATERTON GATE    N/A     39  18  41 W21G35      N/A  WCI  29
CARDSTON         N/A     39  19  45 W15G21      N/A  WCI  31
MILK RIVER       N/A     37  23  56 W20G25      N/A  WCI  27
ONEFOUR          N/A     34  25  69 NW10        N/A  WCI  26
$$

REGIONAL REPORTS...SASKATCHEWAN

CITY           SKY/WX    TMP DP  RH WIND       PRES   REMARKS
SWIFT CURRENT  PTSUNNY   27  23  86 W13       29.62S WCI  16
REGINA         PTSUNNY   21  21 100 SW3       29.66S
SASKATOON      PTSUNNY   19  19 100 SW6       29.65R WCI  11
CYPRESS HILLS    N/A     30  21  69 W9          N/A  WCI  22
VAL MARIE        N/A     34  27  75 W8          N/A  WCI  27
ROCKGLEN         N/A     30  25  80 W9          N/A  WCI  22
ASSINIBOIA       N/A     30  25  80 W7          N/A  WCI  23
$$




USA.gov is the U.S. government's official web portal to all federal, state and local government web resources and services.